POLAR

Last updated on Mon Sep 15 2025 00:03:34 GMT+0000 (Coordinated Universal Time)

1 23802U 96013A 25255.76077948 .00000245 00000+0 00000+0 0 9990 2 23802 79.5453 230.1277 6199658 218.4506 74.9285 1.29846611141258
UTC large
Height (km)
Speed (km/s)
/
Latitude / Longitude
Inclination (degrees)
Orbital Period (minutes)
Azimuth
Elevation
Range (km)
Doppler Factor

Next 0 passes for location: London (51.5072 / 0.1276)

Sorry there are no passes over London.